Home > Weather > Völkermarkt > Past weeks

Flag for Austria Weather for the Past 2 Weeks in Völkermarkt, Carinthia, Austria

Now
30 °F

Overcast.


Feels Like: N/A
Forecast: 33 / 44 °F
Wind: N/A

Location: Klagenfurt-Flughafen

Current Time: Feb 7, 2016 at 6:50:43 AM

Latest Report: Feb 7, 2016 at 6:00 AM


Visibility: 7 mi

Pressure: 30.13 "Hg

Humidity: 94%

Dew point: 28 °F

Location of VölkermarktLocation

Historic Weather in Völkermarkt — Graph

°F

Völkermarkt Temperature Yesterday

Maximum temperature yesterday: 43 °F (at 4:00 PM)
Minimum temperature yesterday: 28 °F (at 5:00 AM)
Average temperature yesterday: 34 °F

High & Low Weather Summary for the Past Weeks

 TemperatureHumidityPressure
High54 °F (Feb 1, 3:00 PM)100% (Feb 6, 6:00 AM)30.72 "Hg (Feb 6, 6:00 AM)
Low15 °F (Jan 24, 6:00 AM)32% (Feb 4, 4:00 PM)29.92 "Hg (Jan 31, 3:00 PM)
Average34 °F84%30.34 "Hg
* Reported Jan 23 5:00 AM — Feb 7 5:00 AM, Völkermarkt, Weather by CustomWeather, © 2016

Note: Actual official high and low records may vary slightly from our data, if they occured in-between our weather recording intervals... More about our weather records

Advertising

Völkermarkt Weather History for the Previous 24 Hours

 ConditionsComfort  
Time TempWeatherWind HumidityBarometerVisibility
5:00 AM
Sun, Feb 7
31 °FOvercast.N/A93%30.14 "Hg9 mi
1:00 AM31 °FOvercast.N/A95%30.19 "Hg7 mi
11:00 PM
Sat, Feb 6
30 °FPassing clouds.N/A96%30.22 "Hg3 mi
10:00 PM31 °FPassing clouds.N/A95%30.23 "Hg5 mi
9:00 PM32 °FPassing clouds.N/A94%30.24 "Hg7 mi
8:00 PM33 °FPassing clouds.N/A92%30.25 "Hg6 mi
7:00 PM34 °FPassing clouds.N/A91%30.25 "Hg7 mi
6:00 PM36 °FPassing clouds.N/A85%30.25 "Hg12 mi
5:00 PM40 °FPartly sunny.N/A78%30.24 "Hg17 mi
4:00 PM43 °FScattered clouds.N/A74%30.25 "Hg16 mi
3:00 PM42 °FPassing clouds.N/A74%30.27 "Hg13 mi
2:00 PM42 °FPassing clouds.N/A75%30.29 "Hg12 mi
1:00 PM40 °FPassing clouds.N/A78%30.33 "Hg12 mi
12:00 PM35 °FPartly sunny.N/A95%30.39 "Hg6 mi
11:00 AM32 °FLow clouds.N/A100%30.43 "Hg4 mi
10:00 AM31 °FIce fog.N/A100%30.44 "Hg1 mi
9:00 AM29 °FIce fog.N/A100%30.45 "Hg0 mi
8:00 AM29 °FIce fog.N/A100%30.45 "Hg0 mi
7:00 AM28 °FIce fog.N/A99%30.44 "Hg1 mi
6:00 AM29 °FIce fog.N/A100%30.44 "Hg1 mi
Weather by CustomWeather, © 2016

See weather overviewHow to use our weather pages